Regional Weather Roundup
Issued by NWS Mt. Holly, NJ

Home | Current Version | Previous Version | Text Only | Print | Product List | Glossary On
Versions: 1 2 3 4 5 6 7 8 9 10 11 12 13 14 15 16 17 18 19 20 21 22 23 24 25 26 27 28 29 30 31 32 33 34 35 36 37 38 39 40 41 42 43 44 45 46 47 48 49 50
834
ASUS41 KPHI 250912
RWRPHI

REGIONAL WEATHER ROUNDUP
NATIONAL WEATHER SERVICE MOUNT HOLLY NJ
500 AM EDT WED MAY 25 2016

NOTE:  "FAIR" INDICATES FEW OR NO CLOUDS BELOW 12,000 FEET WITH NO
SIGNIFICANT WEATHER AND/OR OBSTRUCTIONS TO VISIBILITY.

 * = STATION DOES NOT REPORT PRECIPITATION (E.G. RAIN, SNOW, ETC.)
        OR FOG.

NJZ015>026-251000-
SOUTHERN NEW JERSEY

CITY           SKY/WX    TMP DP  RH WIND       PRES   REMARKS
POMONA         CLEAR     58  52  80 W5        30.04R
WILDWOOD*      CLEAR    N/A N/A N/A W5        30.06S
MILLVILLE      CLEAR     54  51  90 CALM      30.05R
WRIGHTSTOWN    CLEAR     55  52  88 CALM      30.02R
MOUNT HOLLY      N/A     52  51  97 CALM      30.04S FOG
TRENTON        CLEAR     56  51  84 CALM      30.04R

$$
NJZ001>014-251000-
NORTHERN NEW JERSEY

CITY           SKY/WX    TMP DP  RH WIND       PRES   REMARKS
SUSSEX         LGT RAIN  47  45  93 CALM      30.05R
ANDOVER*         N/A     50  49  96 CALM      30.05S
MORRISTOWN     PTCLDY    46  45  93 CALM      30.03S
NEWARK         CLEAR     58  51  78 CALM      30.02R
TETERBORO      CLEAR     55  51  86 CALM      30.01R
CALDWELL       CLEAR     54  50  86 CALM      30.03R
SOMERVILLE     CLEAR     48  46  93 CALM      30.02S
ALLAIRE*       CLEAR     54  52  93 NW5       30.04R
TOMS RIVER*    CLEAR     48  45  87 CALM      30.03S

$$
PAZ043-044-047-054-055-060>062-066>071-251000-
EASTERN PENNSYLVANIA

CITY           SKY/WX    TMP DP  RH WIND       PRES   REMARKS
PHILADELPHIA   PTCLDY    59  52  77 CALM      30.06S
NORTH PHILA    CLEAR     58  53  84 CALM      30.06R
BLUE BELL*     CLEAR     50  50 100 CALM      30.05S
DOYLESTOWN     CLEAR     51  50  96 CALM      30.05R
QUAKERTOWN*    CLEAR     48  46  93 CALM      30.07R
PERKASIE*      CLOUDY    48  48 100 CALM      30.07R
POTTSTOWN      CLEAR     50  49  96 CALM      30.07S FOG
LANCASTER      CLEAR     56  48  74 W3        30.07R
COATESVILLE    CLEAR     55  48  76 W7        30.08S
READING        CLEAR     52  48  86 CALM      30.06R
ALLENTOWN      CLEAR     52  49  89 CALM      30.06R
MOUNT POCONO   CLEAR     40  40 100 CALM      30.08S
HAZLETON       CLEAR     45  43  93 CALM      30.12R
LEHIGHTON      FAIR      43  43 100 CALM      30.08S FOG
WILKES BARRE   CLEAR     51  42  71 E3        30.07R

$$
DEZALL-MDZ008-012-015-019-020-251000-
DELAWARE AND EASTERN MARYLAND

CITY           SKY/WX    TMP DP  RH WIND       PRES   REMARKS
WILMINGTON     CLEAR     58  48  69 NW7       30.06S
DOVER          CLEAR     61  56  83 SW3       30.05S
GEORGETOWN     CLEAR     64  55  72 CALM      30.08R
EASTON         CLEAR     61  59  94 CALM      30.11S
PATUXENT       CLEAR     60  54  80 SW6       30.09R
OCEAN CITY     CLEAR     65  56  72 W8        30.08R
WALLOPS ISLAND FAIR      66  58  75 W7        30.09S
CAMBRIDGE        N/A     54  54 100 CALM      30.08S
SALISBURY      CLEAR     57  55  93 CALM      30.08S

$$
PAZ001-021-NYZ056-072-MDZ011-DCZ001-251000-
OTHER NEARBY LOCATIONS

CITY           SKY/WX    TMP DP  RH WIND       PRES   REMARKS
HARRISBURG     PTCLDY    53  49  86 CALM      30.07R
STATE COLLEGE  CLEAR     54  44  68 SW3       30.11R
WILLIAMSPORT   CLEAR     48  43  82 CALM      30.08R
BINGHAMTON     CLEAR     55  40  56 SW7       30.05S
NEW YORK CITY  CLEAR     61  51  70 W3        30.05R
BALTIMORE      PTCLDY    61  49  64 W3        30.08R
WASHINGTON DC  FAIR      61  57  87 CALM      30.10S

$$




USA.gov is the U.S. government's official web portal to all federal, state and local government web resources and services.